Regional Weather Roundup
Issued by NWS

Home | Current Version | Previous Version | Graphics & Text | Print | Product List | Glossary On
Versions: 1 2 3 4 5 6 7 8 9 10 11 12 13 14 15 16 17 18 19 20 21 22 23 24 25 26 27 28 29 30 31 32 33 34 35 36 37 38 39 40 41 42 43 44 45 46 47 48 49 50
000
ASUS43 KLMK 260502
RWRKY
KENTUCKY REGIONAL WEATHER ROUNDUP
NATIONAL WEATHER SERVICE LOUISVILLE KY
100 AM EDT MON JUN 26 2017

NOTE "FAIR" INDICATES FEW OR NO CLOUDS BELOW 12,000 FEET
WITH NO SIGNIFICANT WEATHER AND/OR OBSTRUCTIONS TO VISIBILITY.

KYZ001>023-026-027-061>063-070>075-260600-
WESTERN AND SOUTH CENTRAL KENTUCKY

CITY           SKY/WX    TMP DP  RH WIND       PRES   REMARKS
PADUCAH        CLEAR     64  58  80 W6        30.17R
HENDERSON      CLEAR     69  50  50 NW5       30.19R
OWENSBORO      PTCLDY    67  52  58 N3        30.18R
HOPKINSVILLE   CLEAR     67  56  68 SW3       30.16F
BOWLING GREEN  CLEAR     65  58  78 CALM      30.17S
GLASGOW        NOT AVBL
$$

KYZ024-025-028>034-038-045-046-053-260600-
NORTH CENTRAL KENTUCKY

CITY           SKY/WX    TMP DP  RH WIND       PRES   REMARKS
LOUISVILLE/SDF CLEAR     67  50  54 W5        30.16R
LOUISVILLE/LOU CLEAR     63  53  70 CALM      30.16R
FORT KNOX      CLEAR     56  51  82 NW6       30.15S
$$

KYZ035>037-039>044-047>052-055>060-089>105-260600-
NORTHEAST KENTUCKY

CITY           SKY/WX    TMP DP  RH WIND       PRES   REMARKS
LEXINGTON      CLEAR     60  48  64 CALM      30.16F
COVINGTON      MOCLDY    57  52  83 SW5       30.13S
FRANKFORT      PTCLDY    59  50  72 CALM      30.15R
$$

KYZ054-064>069-076>088-106>120-260600-
SOUTHEAST KENTUCKY

CITY           SKY/WX    TMP DP  RH WIND       PRES   REMARKS
JACKSON        CLEAR     64  50  60 CALM      30.17S
LONDON         CLEAR     59  54  83 CALM      30.19S
SOMERSET       CLEAR     55  54  94 CALM      30.20S
MIDDLESBORO    CLEAR     56  54  95 CALM      30.21F
MONTICELLO     CLEAR     56  55  97 W10       30.20F
$$





USA.gov is the U.S. government's official web portal to all federal, state and local government web resources and services.